Theta_e
341 341 342 342 342 341 341 339 338 336 336 337 335 332 336 336 343 336 339 339 340 341 341 340 335 335 336 336 336 330 333 333 332 328 340 333 322 339 341 336 331 335 338
342 342 339 337 340 342 340 339 339 339 338 337 338 332 336 341 344 335 337 341 341 342 341 339 333 334 331 328 331 331 333 333 333 331 341 345 332 336 342 339 336 339 336
339 338 337 337 338 339 338 339 339 339 338 337 334 330 338 337 335 336 339 340 339 339 338 330 334 331 336 337 335 334 337 338 339 341 340 342 340 329 329 335 330 328 331
336 337 337 338 339 338 338 339 338 336 337 336 333 337 338 338 338 340 341 340 340 338 337 331 336 333 335 332 340 343 343 344 345 346 344 337 333 335 320 324 334 335 336
337 337 338 339 340 339 337 336 336 336 337 337 336 337 337 339 342 340 338 341 335 336 341 335 334 337 338 340 344 344 340 343 343 344 343 335 338 333 332 336 340 339 339
335 337 338 338 340 338 338 336 334 333 336 336 337 339 340 340 339 334 339 332 338 337 339 338 338 337 334 342 343 343 346 343 343 339 340 327 337 343 343 340 332 331 329
335 333 333 334 336 338 339 337 335 335 337 337 339 338 339 338 339 330 334 338 339 338 339 338 337 335 335 342 340 345 349 347 345 343 343 332 327 329 330 333 336 339 338
335 331 331 333 335 337 340 340 339 336 338 336 339 339 340 339 338 333 339 337 338 339 337 338 337 331 335 341 342 347 346 347 346 343 336 335 337 337 335 336 335 336 333
331 331 330 337 335 336 338 339 337 337 340 337 338 339 339 334 332 332 337 337 338 335 336 334 332 331 331 338 341 343 346 344 345 341 332 331 331 332 333 333 335 337 336
339 332 329 331 334 336 337 339 341 341 336 327 333 339 339 337 340 340 342 343 341 337 333 333 331 328 326 333 341 345 345 345 344 343 337 334 332 332 335 335 338 338 335
347 345 343 331 332 335 333 337 336 334 335 331 331 338 340 342 339 342 342 343 342 340 341 340 332 329 330 334 344 346 347 346 339 344 335 334 332 327 331 338 336 339 340
348 348 347 344 337 336 336 340 338 335 336 340 341 346 347 348 342 339 340 341 342 341 340 342 337 333 333 343 347 347 341 346 342 342 333 331 335 331 334 334 336 338 337
349 348 346 347 346 346 341 343 346 342 339 347 349 349 349 349 346 337 336 339 339 341 346 347 347 347 343 342 344 345 342 344 344 340 338 336 331 337 331 337 336 334 338
348 348 346 348 350 349 349 349 348 346 347 347 347 348 351 349 344 347 346 345 346 345 347 348 347 347 346 347 344 342 337 336 335 336 342 336 337 335 337 336 333 336 335
348 348 349 349 351 350 346 350 347 348 345 347 349 346 349 347 346 347 348 347 348 346 348 348 347 345 346 347 345 344 343 339 338 333 344 336 338 338 338 333 339 334 334
346 346 347 349 349 350 346 347 348 349 350 346 348 347 346 347 348 349 348 350 348 347 348 346 345 345 344 343 344 340 340 340 337 339 343 339 336 339 338 338 335 336 335
346 346 347 345 349 347 349 349 350 348 349 347 346 347 347 348 345 349 346 345 347 348 347 346 345 333 336 338 338 337 339 337 338 342 342 341 336 335 336 338 338 337 336
346 347 348 347 339 345 349 349 348 349 352 352 350 349 348 348 347 349 346 347 347 347 345 346 346 347 346 343 343 340 341 342 341 341 339 339 339 338 336 336 338 338 338
346 347 348 347 346 339 337 348 347 348 350 351 350 349 346 346 349 347 347 348 347 347 347 347 347 347 346 347 344 342 341 342 342 344 343 340 339 339 341 338 336 337 336
346 346 347 348 348 347 346 343 345 347 348 349 349 349 349 349 347 344 347 348 349 347 347 347 348 348 347 345 346 344 343 343 343 343 345 345 344 343 343 343 338 336 336
346 347 347 347 349 348 348 344 347 348 347 349 349 349 348 349 349 347 347 349 349 349 347 348 347 348 348 346 347 345 343 344 345 346 345 346 344 343 343 342 343 339 336
348 348 349 347 348 348 348 345 347 350 348 348 349 348 349 349 346 350 349 347 351 349 347 349 350 348 346 347 348 346 344 343 344 344 342 343 343 343 343 343 343 342 342
348 349 350 346 346 347 345 344 349 350 350 349 349 349 349 348 348 347 349 346 348 352 351 350 351 347 346 347 348 346 343 344 348 344 346 343 343 343 343 343 343 343 342
350 350 348 345 341 343 342 347 350 351 351 353 350 348 350 349 350 351 346 347 347 345 351 348 351 348 349 347 348 347 346 344 347 345 347 346 346 345 346 346 345 344 344
350 351 352 348 344 344 342 346 350 350 350 352 351 349 349 350 350 351 350 347 345 345 343 347 352 352 350 348 347 348 347 347 345 344 346 347 347 347 347 348 348 346 345
350 351 351 353 350 345 344 345 348 349 352 355 355 352 352 352 351 351 350 350 348 345 345 345 345 351 350 347 347 349 350 348 346 349 348 348 348 348 348 348 350 349 348
Wind_Speed
17 17 16 16 15 16 15 13 12 12 11 13 18 16 12 14 15 15 16 13 12 11 12 12 12 14 15 14 14 13 13 12 11 13 16 19 21 20 18 14 16 18 17
22 18 16 15 16 16 14 14 12 12 12 13 12 11 14 15 15 15 14 13 14 14 15 14 15 16 18 18 17 17 16 14 14 15 16 16 17 17 18 14 16 17 17
21 18 16 15 15 15 14 15 17 16 18 15 9 13 14 13 13 14 14 13 15 15 16 16 17 19 20 19 18 18 19 20 19 18 15 14 14 15 13 12 14 15 15
20 18 17 16 17 17 17 17 16 16 16 13 14 14 15 15 15 15 15 15 16 15 16 17 18 19 19 19 19 18 16 17 20 17 12 9 12 13 13 13 14 14 14
20 19 19 17 17 18 18 18 17 15 14 13 15 15 16 17 16 16 15 16 15 15 16 17 17 18 18 20 20 23 21 21 19 14 7 4 11 13 13 13 13 13 12
20 19 19 17 17 17 16 18 17 16 14 14 16 16 16 17 15 15 16 15 18 17 16 16 17 17 19 20 17 15 16 15 13 11 7 8 12 12 11 12 12 13 11
20 17 18 16 16 15 14 15 16 16 14 14 15 15 16 16 15 15 18 18 16 15 14 14 16 17 20 19 17 15 15 17 11 11 5 7 10 11 12 11 11 11 10
20 17 17 16 15 14 12 16 19 17 15 14 15 15 16 15 15 15 17 16 15 14 13 13 14 15 18 17 17 16 16 13 10 7 7 8 10 11 11 10 10 10 10
18 16 17 16 15 15 16 22 21 18 15 13 15 15 14 14 16 16 15 14 13 12 12 11 11 13 15 15 18 17 16 12 5 7 7 7 9 9 9 10 9 9 9
17 15 14 15 15 16 18 19 19 17 15 14 16 15 14 13 14 13 13 12 12 12 13 13 12 12 14 16 15 15 11 8 8 5 7 7 9 8 8 8 8 8 8
11 13 13 12 15 14 15 16 15 14 15 15 16 17 16 11 12 12 10 10 13 13 12 13 13 14 15 18 17 15 6 6 7 2 3 6 6 7 7 8 8 7 8
15 12 11 11 14 15 13 13 13 14 15 17 17 16 12 9 12 8 9 9 13 12 13 12 13 17 18 17 11 6 6 9 12 6 5 7 5 6 7 6 7 7 7
17 19 12 10 14 12 11 13 14 14 19 18 14 12 11 8 6 9 9 10 12 12 13 10 8 11 8 12 7 6 8 4 7 9 7 6 3 4 5 5 6 6 7
22 19 13 9 13 12 10 9 11 7 11 14 13 9 15 11 6 10 10 8 8 7 7 7 6 6 5 6 4 7 16 12 13 8 5 5 2 1 2 3 5 6 4
25 24 19 13 16 14 6 9 4 4 6 11 14 15 11 8 5 11 9 4 4 5 4 5 3 1 3 5 2 2 2 2 11 16 7 6 4 3 3 3 3 5 5
20 22 19 17 22 17 10 9 9 5 5 12 14 14 10 8 9 8 6 6 4 5 8 4 6 7 8 3 3 5 2 3 8 11 11 14 15 9 8 6 5 5 5
21 20 20 15 21 19 18 14 11 7 7 14 6 7 7 12 6 6 6 11 8 4 8 6 9 9 8 7 8 9 6 6 7 11 11 14 17 13 15 12 11 7 7
22 20 18 12 20 26 18 19 15 7 12 13 5 7 10 13 12 10 9 7 8 5 7 9 5 5 7 5 5 9 7 8 8 10 13 15 17 16 20 20 17 15 10
22 20 13 10 10 15 13 22 17 9 10 17 8 6 2 10 12 13 11 9 9 10 8 8 9 10 10 11 8 7 9 8 9 12 13 15 16 17 16 19 27 17 21
20 21 16 15 14 11 11 19 18 11 9 11 9 8 5 4 6 15 14 12 12 12 12 11 11 11 11 9 9 9 9 10 14 15 13 14 15 17 16 15 23 28 22
22 23 21 22 18 17 16 16 20 15 15 12 11 10 10 9 10 10 16 14 15 14 16 15 15 15 15 14 9 9 11 9 10 13 11 12 13 11 13 12 14 19 25
25 23 20 23 22 20 17 16 20 15 15 11 12 11 10 10 8 10 9 16 14 13 14 12 13 11 12 13 12 11 7 8 8 8 8 10 12 12 10 10 13 16 21
30 27 22 24 27 23 17 16 17 14 14 13 12 11 11 10 9 13 12 10 12 11 10 8 8 7 9 12 13 11 5 5 6 9 11 13 14 14 11 9 10 14 18
33 29 20 22 26 23 20 19 21 21 21 18 16 14 14 10 10 10 9 10 12 11 11 9 8 8 8 9 11 12 15 15 7 4 8 12 14 17 14 15 13 13 15
33 33 27 22 24 24 24 22 22 23 22 19 16 15 16 15 12 12 12 10 12 12 12 12 13 11 11 11 11 10 11 13 15 18 17 16 16 15 16 18 18 18 18
36 33 32 27 24 25 26 25 24 23 22 20 18 21 17 19 17 14 13 13 13 14 13 14 16 15 13 12 13 13 14 15 14 13 15 16 20 18 16 16 16 15 14
Wind_Direction
153 140 135 127 124 123 120 121 124 114 109 113 85 93 102 94 100 99 104 105 106 107 115 109 104 107 108 102 97 94 95 99 103 113 103 94 105 106 104 103 111 106 105
144 141 136 130 126 126 123 120 118 102 109 131 108 84 97 92 101 103 108 99 104 111 116 110 112 111 105 105 102 102 104 105 104 100 97 95 99 111 111 108 108 106 103
140 141 140 132 130 128 123 124 117 114 112 108 100 98 97 101 107 109 111 108 109 112 109 110 111 110 109 112 115 114 112 106 98 84 71 90 100 103 111 114 108 108 108
137 138 134 130 128 127 125 126 119 116 104 97 104 102 104 105 109 113 112 111 108 109 115 114 112 112 116 113 109 111 109 103 100 78 73 68 103 105 112 116 109 108 110
128 131 130 128 128 128 127 127 127 116 102 105 110 108 108 108 111 111 114 113 112 119 117 114 115 114 118 113 106 102 94 96 94 111 107 75 114 106 109 111 110 107 106
123 130 129 128 127 126 131 131 134 127 116 110 114 110 111 112 111 110 120 118 115 115 113 113 114 116 120 116 116 98 102 108 116 124 85 109 116 109 113 108 111 105 106
135 132 130 129 127 130 132 145 141 136 122 115 118 115 114 114 115 113 112 115 114 115 117 118 118 121 126 126 116 106 96 109 109 110 87 117 119 113 114 117 109 107 110
135 132 128 129 127 123 122 144 147 138 130 122 119 119 118 120 119 119 122 117 118 113 111 115 117 121 130 131 120 121 109 105 129 100 101 122 113 111 111 110 114 113 111
129 137 134 133 129 125 123 128 136 139 134 127 124 121 115 116 119 123 121 120 116 111 113 109 113 122 131 132 122 126 126 108 84 83 106 108 108 112 113 112 113 114 117
113 124 130 134 132 132 132 133 133 133 130 125 127 117 115 118 119 123 118 115 118 111 107 104 103 105 121 130 120 122 112 116 117 105 59 87 101 109 108 110 110 106 105
125 111 113 136 134 135 139 139 142 134 126 122 125 118 111 104 123 118 114 108 114 111 105 103 104 107 114 122 115 111 115 110 140 127 76 79 92 99 108 110 111 110 116
144 143 117 104 134 124 133 133 134 133 123 120 122 123 117 112 106 71 115 107 118 110 102 104 118 113 121 119 119 136 72 67 133 154 115 78 82 99 111 106 113 111 107
157 156 132 116 126 117 117 138 127 133 132 127 122 120 132 146 96 84 116 126 118 115 107 96 122 116 137 142 170 164 146 153 108 123 99 74 67 106 112 121 113 109 117
157 159 133 152 154 139 129 127 122 136 143 143 136 144 148 166 169 121 117 121 125 60 120 107 112 128 118 193 169 186 187 227 217 201 128 114 51 78 139 136 131 123 111
153 159 140 154 169 169 138 152 134 130 132 160 147 160 179 187 155 125 117 125 63 109 142 156 173 152 198 144 176 13 121 131 209 199 184 193 182 199 185 183 180 146 138
160 174 173 166 161 166 157 182 181 189 146 177 166 162 182 187 155 145 155 176 215 159 193 209 229 248 245 238 212 258 285 147 167 172 201 206 214 214 210 208 198 186 166
175 184 186 190 181 180 182 170 194 196 184 154 154 169 187 197 190 182 205 186 194 191 200 244 273 247 238 243 245 252 283 259 201 213 218 216 226 246 242 246 220 205 195
179 186 191 198 197 187 188 176 161 169 193 187 177 200 204 194 198 188 171 187 204 223 242 266 265 265 277 273 255 221 241 242 248 242 235 233 246 253 254 239 236 220 217
189 188 189 200 190 190 174 181 164 168 194 196 194 187 190 222 212 196 187 207 203 226 240 253 265 277 302 305 292 236 243 248 256 248 248 248 248 256 266 251 236 227 223
196 194 186 197 206 204 181 184 173 183 189 189 217 201 235 262 188 192 205 205 197 211 220 230 250 264 280 280 280 271 262 268 240 251 253 259 265 267 264 257 239 238 233
202 200 201 194 201 207 205 189 179 184 195 206 220 237 236 227 210 206 210 214 222 229 235 238 238 254 259 280 273 256 269 279 250 244 263 264 266 269 260 260 253 243 235
203 207 214 205 203 212 221 206 184 182 192 215 232 235 237 239 234 234 233 222 225 221 218 234 255 257 252 255 255 264 274 270 251 240 262 256 253 263 261 255 250 249 240
205 212 220 206 209 217 216 193 177 188 207 221 227 241 247 269 265 245 250 236 231 227 234 228 248 260 251 240 247 239 247 248 279 258 280 257 255 263 262 260 263 256 250
210 215 215 208 208 210 207 191 186 197 208 224 230 242 251 259 265 275 267 248 256 255 242 249 260 255 260 250 246 244 253 258 271 281 268 271 264 266 261 270 274 269 259
212 215 216 212 213 207 206 202 200 200 207 210 228 241 242 243 251 265 282 282 260 261 258 257 253 253 273 267 266 258 258 260 258 263 275 283 273 279 274 274 279 273 264
210 216 217 216 217 215 212 214 209 210 202 206 226 232 236 247 250 262 268 277 272 271 264 262 265 264 269 274 273 268 269 271 271 269 268 290 290 289 291 285 276 273 270